WetterOnline ( https://www.wetteronline.de )

Wetter aktuell Herzogenrath

Aktuelles Wetter: Aachen-Orsbach (231m)

6-stündlich | Neueste Meldungen
Ortszeit Temperatur Wetter
Mi, 21.08. 8:00 11.8° C fast wolkenlos
Mi, 21.08. 2:00 12.9° C wolkig
Di, 20.08. 20:00 18.3° C wolkenlos
Di, 20.08. 14:00 18.2° C wolkig
Di, 20.08. 8:00 12.4° C wolkenlos
Di, 20.08. 2:00 13.3° C wolkenlos
Mo, 19.08. 20:00 18.7° C leicht bewölkt
Mo, 19.08. 14:00 19.2° C wolkig
Ortszeit Temperatur Wetter
Mi, 21.08. 13:00 19.8° C wolkig
Mi, 21.08. 12:40 19.1° C leicht bewölkt
Mi, 21.08. 12:30 18.3° C wolkig
Mi, 21.08. 12:20 18.3° C wolkig
Mi, 21.08. 12:10 19.1° C leicht bewölkt
Mi, 21.08. 12:00 18.8° C fast wolkenlos
Mi, 21.08. 11:50 18.8° C fast wolkenlos
Mi, 21.08. 11:30 18.7° C wolkenlos
Mi, 21.08. 11:00 18.0° C wolkenlos
Mi, 21.08. 10:30 17.4° C wolkenlos
Mi, 21.08. 10:00 17.4° C wolkenlos
Mi, 21.08. 9:30 16.1° C wolkenlos
Ortszeit Relative Feuchte Sichtweite
Mi, 21.08. 8:00 83% 40 km
Mi, 21.08. 2:00 77% 35 km
Di, 20.08. 20:00 56% 55 km
Di, 20.08. 14:00 55% 55 km
Di, 20.08. 8:00 84% 30 km
Di, 20.08. 2:00 80% 40 km
Mo, 19.08. 20:00 55% 65 km
Mo, 19.08. 14:00 57% 50 km
Ortszeit Relative Feuchte Sichtweite
Mi, 21.08. 13:00 53% 65 km
Mi, 21.08. 12:40 52% -
Mi, 21.08. 12:30 54% 45 km
Mi, 21.08. 12:20 54% -
Mi, 21.08. 12:10 52% -
Mi, 21.08. 12:00 54% 40 km
Mi, 21.08. 11:50 54% -
Mi, 21.08. 11:30 52% 60 km
Mi, 21.08. 11:00 55% 35 km
Mi, 21.08. 10:30 54% 55 km
Mi, 21.08. 10:00 63% 45 km
Mi, 21.08. 9:30 65% 35 km
Ortszeit Niederschlagsmenge Niederschlagsart
Mi, 21.08. 8:00 0.0 l/m2 in 12 Std. -
Mi, 21.08. 2:00 0.0 l/m2 in 6 Std. -
Di, 20.08. 20:00 0.0 l/m2 in 12 Std. -
Di, 20.08. 14:00 0.0 l/m2 in 6 Std. -
Di, 20.08. 8:00 0.1 l/m2 in 12 Std. -
Di, 20.08. 2:00 0.1 l/m2 in 6 Std. Regen
Mo, 19.08. 20:00 0.0 l/m2 in 12 Std. -
Mo, 19.08. 14:00 0.0 l/m2 in 6 Std. -
Ortszeit Niederschlagsmenge Niederschlagsart
Mi, 21.08. 13:00 0.0 l/m2 in 1 Std. -
Mi, 21.08. 12:40 keine Meldung -
Mi, 21.08. 12:30 0.0 l/m2 in 1 Std. -
Mi, 21.08. 12:20 keine Meldung -
Mi, 21.08. 12:10 keine Meldung -
Mi, 21.08. 12:00 0.0 l/m2 in 1 Std. -
Mi, 21.08. 11:50 keine Meldung -
Mi, 21.08. 11:30 0.0 l/m2 in 1 Std. -
Mi, 21.08. 11:00 0.0 l/m2 in 1 Std. -
Mi, 21.08. 10:30 0.0 l/m2 in 1 Std. -
Mi, 21.08. 10:00 0.0 l/m2 in 1 Std. -
Mi, 21.08. 9:30 0.0 l/m2 in 1 Std. -
Ortszeit Stärke Spitze Richtung
km/h Bft. km/h Grad Sektor
Mi, 21.08. 8:00 6 1 9 130° SO
Mi, 21.08. 2:00 4 1 18 230° SW
Di, 20.08. 20:00 14 3 36 280° W
Di, 20.08. 14:00 17 3 28 250° W
Di, 20.08. 8:00 13 3 22 230° SW
Di, 20.08. 2:00 13 3 26 220° SW
Mo, 19.08. 20:00 13 3 43 250° W
Mo, 19.08. 14:00 18 3 40 240° SW
Ortszeit Stärke Spitze Richtung
km/h Bft. km/h Grad Sektor
Mi, 21.08. 13:00 7 2 14 340° N
Mi, 21.08. 12:40 7 2 - 360° N
Mi, 21.08. 12:30 7 2 14 280° W
Mi, 21.08. 12:20 7 2 - 280° W
Mi, 21.08. 12:10 7 2 - 90° O
Mi, 21.08. 12:00 7 2 19 60° NO
Mi, 21.08. 11:50 7 2 - 60° NO
Mi, 21.08. 11:30 4 1 11 120° SO
Mi, 21.08. 11:00 9 2 15 80° O
Mi, 21.08. 10:30 7 2 11 90° O
Mi, 21.08. 10:00 4 1 7 80° O
Mi, 21.08. 9:30 4 1 7 100° O
Ortszeit Untergrenze Bedeckung Gattung
total tief tief mittel hoch
Mi, 21.08. 8:00 1320 m 1/8 1/8 - - -
Mi, 21.08. 2:00 1230 m 5/8 5/8 - - -
Di, 20.08. 20:00 - 0/8 0/8 - - -
Di, 20.08. 14:00 1380 m 7/8 1/8 - - -
Di, 20.08. 8:00 9000 m 0/8 0/8 - - -
Di, 20.08. 2:00 - 0/8 0/8 - - -
Mo, 19.08. 20:00 1500 m 3/8 3/8 - - -
Mo, 19.08. 14:00 1200 m 5/8 5/8 - - -
Ortszeit Bedeckungsgrad in Achtel und Wolkenuntergrenze
Mi, 21.08. 13:00 6(1260m)
Mi, 21.08. 12:40 3(1260m)
Mi, 21.08. 12:30 4(1290m) 5(1500m)
Mi, 21.08. 12:20 4(1290m) 5(1500m)
Mi, 21.08. 12:10 4(1260m) 4(1500m)
Mi, 21.08. 12:00 1(1260m)
Mi, 21.08. 11:50 1(1260m)
Mi, 21.08. 11:30 keine Wolken
Mi, 21.08. 11:00 keine Wolken
Mi, 21.08. 10:30 keine Wolken
Mi, 21.08. 10:00 keine Wolken
Mi, 21.08. 9:30 keine Wolken
Ortszeit Luftdruck NN (hPa) Tendenz (hPa in 3 Std.)
Mi, 21.08. 8:00 1029 + 0,9
Mi, 21.08. 2:00 1028 + 1,0
Di, 20.08. 20:00 1025 + 1,0
Di, 20.08. 14:00 1023 + 0,5
Di, 20.08. 8:00 1023 + 0,9
Di, 20.08. 2:00 1021 + 1,2
Mo, 19.08. 20:00 1018 + 0,7
Mo, 19.08. 14:00 1017 + 0,8
Ortszeit Luftdruck NN (hPa) Tendenz (hPa in 3 Std.)
Mi, 21.08. 13:00 1028 - 0,5
Mi, 21.08. 12:40 1028 keine Meldung
Mi, 21.08. 12:30 1029 - 0,1
Mi, 21.08. 12:20 1029 keine Meldung
Mi, 21.08. 12:10 1029 keine Meldung
Mi, 21.08. 12:00 1029 0,0
Mi, 21.08. 11:50 1029 keine Meldung
Mi, 21.08. 11:30 1029 + 0,2
Mi, 21.08. 11:00 1029 + 0,5
Mi, 21.08. 10:30 1029 + 0,5
Mi, 21.08. 10:00 1029 + 0,6
Mi, 21.08. 9:30 1029 + 0,8
Ortszeit Schneehöhe (cm)
Mi, 21.08. 8:00 -
Mi, 21.08. 2:00 -
Di, 20.08. 20:00 -
Di, 20.08. 14:00 -
Di, 20.08. 8:00 -
Di, 20.08. 2:00 -
Mo, 19.08. 20:00 -
Mo, 19.08. 14:00 -
Ortszeit Schneehöhe (cm)
Mi, 21.08. 13:00 -
Mi, 21.08. 12:40 -
Mi, 21.08. 12:30 -
Mi, 21.08. 12:20 -
Mi, 21.08. 12:10 -
Mi, 21.08. 12:00 -
Mi, 21.08. 11:50 -
Mi, 21.08. 11:30 -
Mi, 21.08. 11:00 -
Mi, 21.08. 10:30 -
Mi, 21.08. 10:00 -
Mi, 21.08. 9:30 -
Link zu dieser Seite / Seite empfehlen

Das Wetter in ...